MNA250 WIBB-WITT

Flight info

Callsign MNA250
Flight time 1h 18m
Altitude 32000
Route MEDI1E MEDIA DCT ISVUR DCT JILAT DCT OPUNG OPUN1J
Aircraft B722/M-SDFGHRWY/C

Departure

Time 2026-04-25 11:40
Airport Sultan Syarif Kasim II International Airport / Roesmin Nurjadin AFB (WIBB)

Arrival

Time 2026-04-25 12:58
Airport Sultan Iskandar Muda International Airport (WITT)
Time Latitude Longitude Altitude Speed Heading
2026-04-25 10:58 0.46481 101.44674 131 ft 0 kts 91°
2026-04-25 11:30 0.46481 101.44671 131 ft 3 kts 91°
2026-04-25 11:30 0.46480 101.44645 129 ft 4 kts 83°
2026-04-25 11:31 0.46473 101.44619 129 ft 4 kts 69°
2026-04-25 11:31 0.46460 101.44597 125 ft 4 kts 40°
2026-04-25 11:31 0.46441 101.44590 129 ft 1 kts
2026-04-25 11:31 0.46437 101.44590 125 ft 0 kts
2026-04-25 11:36 0.46441 101.44590 129 ft 2 kts
2026-04-25 11:36 0.46469 101.44592 130 ft 6 kts
2026-04-25 11:36 0.46526 101.44595 130 ft 10 kts
2026-04-25 11:37 0.46605 101.44595 129 ft 12 kts 352°
2026-04-25 11:37 0.46628 101.44530 132 ft 11 kts 268°
2026-04-25 11:37 0.46666 101.44471 133 ft 12 kts 350°
2026-04-25 11:37 0.46759 101.44472 133 ft 15 kts
2026-04-25 11:38 0.46876 101.44476 132 ft 19 kts
2026-04-25 11:38 0.47018 101.44488 131 ft 21 kts 17°
2026-04-25 11:38 0.47072 101.44490 131 ft 1 kts 255°
2026-04-25 11:38 0.47068 101.44486 127 ft 1 kts 211°
2026-04-25 11:39 0.47051 101.44483 129 ft 6 kts 184°
2026-04-25 11:39 0.46949 101.44478 132 ft 35 kts 181°
2026-04-25 11:39 0.46529 101.44467 132 ft 84 kts 182°
2026-04-25 11:39 0.45775 101.44444 128 ft 130 kts 181°
2026-04-25 11:40 0.44769 101.44426 215 ft 150 kts 180°
2026-04-25 11:40 0.43733 101.44388 520 ft 150 kts 181°
2026-04-25 11:40 0.42682 101.44346 839 ft 154 kts 180°
2026-04-25 11:40 0.41601 101.44307 1143 ft 159 kts 180°
2026-04-25 11:41 0.40538 101.44247 1676 ft 148 kts 181°
2026-04-25 11:41 0.39461 101.44193 1855 ft 158 kts 180°
2026-04-25 11:41 0.38337 101.44158 2042 ft 171 kts 180°
2026-04-25 11:41 0.37092 101.44119 2204 ft 181 kts 180°
2026-04-25 11:42 0.35833 101.44075 2521 ft 182 kts 181°
2026-04-25 11:42 0.34545 101.44028 2781 ft 189 kts 181°
2026-04-25 11:42 0.33200 101.43983 3053 ft 198 kts 180°
2026-04-25 11:42 0.31792 101.43927 3325 ft 206 kts 181°
2026-04-25 11:43 0.30358 101.43643 3551 ft 219 kts 208°
2026-04-25 11:43 0.29287 101.42476 3800 ft 241 kts 242°
2026-04-25 11:43 0.28797 101.40827 4063 ft 260 kts 271°
2026-04-25 11:43 0.29340 101.39062 4347 ft 280 kts 307°
2026-04-25 11:44 0.30879 101.37840 4852 ft 285 kts 340°
2026-04-25 11:44 0.32758 101.37266 5682 ft 285 kts 349°
2026-04-25 11:44 0.34705 101.36821 6623 ft 289 kts 349°
2026-04-25 11:44 0.36676 101.36371 7583 ft 292 kts 349°
2026-04-25 11:45 0.38678 101.35915 8483 ft 297 kts 349°
2026-04-25 11:45 0.40710 101.35456 9389 ft 302 kts 349°
2026-04-25 11:45 0.42771 101.34990 10207 ft 306 kts 349°
2026-04-25 11:45 0.44859 101.34521 11028 ft 309 kts 349°
2026-04-25 11:46 0.46993 101.34044 11434 ft 329 kts 349°
2026-04-25 11:46 0.49340 101.33523 11755 ft 351 kts 349°
2026-04-25 11:46 0.51754 101.32989 12248 ft 362 kts 349°
2026-04-25 11:46 0.54160 101.32215 13148 ft 367 kts 336°
2026-04-25 11:47 0.56390 101.30921 13875 ft 374 kts 328°
2026-04-25 11:47 0.58495 101.29370 14588 ft 379 kts 323°
2026-04-25 11:47 0.60511 101.27650 15275 ft 384 kts 320°
2026-04-25 11:47 0.62486 101.25829 15955 ft 388 kts 319°
2026-04-25 11:48 0.64494 101.24007 16616 ft 392 kts 320°
2026-04-25 11:48 0.66530 101.22164 17257 ft 396 kts 319°
2026-04-25 11:48 0.68569 101.20283 17907 ft 401 kts 319°
2026-04-25 11:48 0.70398 101.18588 18427 ft 404 kts 319°
2026-04-25 11:49 0.72508 101.16652 18984 ft 407 kts 319°
2026-04-25 11:49 0.74611 101.14731 19467 ft 411 kts 319°
2026-04-25 11:49 0.76719 101.12795 19980 ft 414 kts 319°
2026-04-25 11:49 0.78845 101.10837 20480 ft 417 kts 319°
2026-04-25 11:50 0.80990 101.08867 20969 ft 420 kts 319°
2026-04-25 11:50 0.83155 101.06882 21443 ft 424 kts 319°
2026-04-25 11:50 0.85333 101.04882 21931 ft 427 kts 319°
2026-04-25 11:50 0.87522 101.02870 22404 ft 430 kts 319°
2026-04-25 11:51 0.89704 101.00865 22847 ft 433 kts 319°
2026-04-25 11:51 0.91959 100.98796 23293 ft 436 kts 319°
2026-04-25 11:51 0.94164 100.96773 23683 ft 438 kts 319°
2026-04-25 11:51 0.96432 100.94711 24052 ft 441 kts 320°
2026-04-25 11:52 0.98719 100.92658 24420 ft 443 kts 320°
2026-04-25 11:52 1.01030 100.90609 24777 ft 445 kts 320°
2026-04-25 11:52 1.03377 100.88554 25111 ft 448 kts 321°
2026-04-25 11:52 1.05739 100.86513 25454 ft 450 kts 321°
2026-04-25 11:53 1.08127 100.84473 25780 ft 453 kts 321°
2026-04-25 11:53 1.10497 100.82399 26097 ft 456 kts 317°
2026-04-25 11:53 1.12707 100.80118 26416 ft 458 kts 314°
2026-04-25 11:53 1.14872 100.77755 26747 ft 460 kts 314°
2026-04-25 11:54 1.17132 100.75480 27052 ft 462 kts 319°
2026-04-25 11:54 1.19566 100.73382 27337 ft 464 kts 322°
2026-04-25 11:54 1.24376 100.69078 27886 ft 469 kts 317°
2026-04-25 11:55 1.26725 100.66798 28179 ft 471 kts 318°
2026-04-25 11:55 1.29149 100.64585 28464 ft 473 kts 320°
2026-04-25 11:55 1.31620 100.62397 28718 ft 475 kts 319°
2026-04-25 11:55 1.34066 100.60155 28980 ft 477 kts 318°
2026-04-25 11:56 1.36485 100.57878 29231 ft 479 kts 318°
2026-04-25 11:56 1.38937 100.55614 29481 ft 481 kts 319°
2026-04-25 11:56 1.41432 100.53358 29719 ft 483 kts 319°
2026-04-25 11:56 1.43920 100.51099 29941 ft 485 kts 319°
2026-04-25 11:57 1.46392 100.48803 30173 ft 486 kts 318°
2026-04-25 11:57 1.48870 100.46494 30408 ft 487 kts 319°
2026-04-25 11:57 1.51369 100.44209 30600 ft 488 kts 319°
2026-04-25 11:57 1.53884 100.41920 30797 ft 490 kts 319°
2026-04-25 11:58 1.56400 100.39606 30996 ft 491 kts 319°
2026-04-25 11:58 1.58915 100.37280 31186 ft 493 kts 319°
2026-04-25 11:58 1.61443 100.34954 31368 ft 494 kts 319°
2026-04-25 11:58 1.63949 100.32661 31530 ft 495 kts 319°
2026-04-25 11:59 1.66489 100.30330 31698 ft 497 kts 319°
2026-04-25 11:59 1.69035 100.27983 31868 ft 498 kts 319°
2026-04-25 11:59 1.71600 100.25623 31872 ft 503 kts 319°
2026-04-25 12:00 1.79449 100.18413 31879 ft 517 kts 319°
2026-04-25 12:01 1.87463 100.11045 31885 ft 523 kts 319°
2026-04-25 12:01 1.92785 100.06148 31885 ft 504 kts 319°
2026-04-25 12:01 1.95297 100.03834 31865 ft 482 kts 319°
2026-04-25 12:02 2.00222 99.99305 31868 ft 482 kts 319°
2026-04-25 12:02 2.05137 99.94779 31880 ft 484 kts 319°
2026-04-25 12:03 2.10095 99.90215 31876 ft 484 kts 319°
2026-04-25 12:03 2.15055 99.85648 31879 ft 484 kts 319°
2026-04-25 12:04 2.20010 99.81085 31887 ft 484 kts 319°
2026-04-25 12:04 2.24967 99.76519 31886 ft 484 kts 319°
2026-04-25 12:05 2.29926 99.71952 31885 ft 484 kts 319°
2026-04-25 12:05 2.34876 99.67394 31889 ft 484 kts 319°
2026-04-25 12:06 2.39826 99.62832 31899 ft 484 kts 319°
2026-04-25 12:06 2.44785 99.58266 31899 ft 484 kts 319°
2026-04-25 12:07 2.49701 99.53735 31901 ft 484 kts 319°
2026-04-25 12:07 2.54650 99.49174 31900 ft 484 kts 319°
2026-04-25 12:08 2.59602 99.44612 31899 ft 484 kts 319°
2026-04-25 12:08 2.64547 99.40053 31903 ft 484 kts 319°
2026-04-25 12:09 2.69500 99.35488 31906 ft 484 kts 318°
2026-04-25 12:09 2.74450 99.30924 31907 ft 484 kts 318°
2026-04-25 12:10 2.79398 99.26362 31903 ft 484 kts 318°
2026-04-25 12:10 2.84357 99.21790 31904 ft 484 kts 318°
2026-04-25 12:11 2.89310 99.17221 31907 ft 484 kts 318°
2026-04-25 12:11 2.94267 99.12650 31900 ft 484 kts 318°
2026-04-25 12:12 2.98383 99.08853 31899 ft 484 kts 318°
2026-04-25 12:12 3.04149 99.03533 31898 ft 484 kts 318°
2026-04-25 12:13 3.09099 98.98965 31894 ft 484 kts 318°
2026-04-25 12:13 3.14050 98.94397 31892 ft 484 kts 318°
2026-04-25 12:14 3.18173 98.90592 31888 ft 484 kts 318°
2026-04-25 12:14 3.23127 98.86019 31890 ft 484 kts 318°
2026-04-25 12:15 3.28889 98.80699 31885 ft 485 kts 318°
2026-04-25 12:15 3.33843 98.76125 31878 ft 485 kts 318°
2026-04-25 12:16 3.37972 98.72313 31873 ft 485 kts 318°
2026-04-25 12:16 3.42928 98.67735 31874 ft 484 kts 318°
2026-04-25 12:17 3.47887 98.63154 31869 ft 484 kts 318°
2026-04-25 12:17 3.52171 98.58261 31873 ft 485 kts 306°
2026-04-25 12:18 3.55715 98.52511 31872 ft 485 kts 301°
2026-04-25 12:18 3.59365 98.46841 31885 ft 485 kts 305°
2026-04-25 12:19 3.64800 98.38274 31886 ft 485 kts 303°
2026-04-25 12:20 3.68479 98.32609 31883 ft 485 kts 303°
2026-04-25 12:20 3.72066 98.26938 31892 ft 485 kts 303°
2026-04-25 12:21 3.75713 98.21257 31897 ft 485 kts 303°
2026-04-25 12:21 3.79340 98.15561 31905 ft 485 kts 303°
2026-04-25 12:22 3.82976 98.09871 31909 ft 484 kts 303°
2026-04-25 12:22 3.86603 98.04186 31919 ft 484 kts 303°
2026-04-25 12:23 3.90234 97.98496 31928 ft 485 kts 303°
2026-04-25 12:23 3.93850 97.92828 31933 ft 484 kts 303°
2026-04-25 12:24 3.97489 97.87122 31939 ft 485 kts 303°
2026-04-25 12:24 4.01094 97.81469 31950 ft 485 kts 303°
2026-04-25 12:25 4.04722 97.75778 31955 ft 484 kts 303°
2026-04-25 12:25 4.08350 97.70088 31962 ft 485 kts 303°
2026-04-25 12:26 4.11983 97.64388 31970 ft 485 kts 303°
2026-04-25 12:26 4.15613 97.58691 31978 ft 485 kts 303°
2026-04-25 12:27 4.19246 97.52988 31980 ft 485 kts 303°
2026-04-25 12:27 4.22878 97.47286 31982 ft 485 kts 303°
2026-04-25 12:28 4.26513 97.41576 31981 ft 485 kts 303°
2026-04-25 12:28 4.30144 97.35873 31979 ft 485 kts 303°
2026-04-25 12:29 4.33753 97.30203 31978 ft 485 kts 303°
2026-04-25 12:29 4.37387 97.24494 31984 ft 485 kts 303°
2026-04-25 12:30 4.41015 97.18790 31989 ft 485 kts 303°
2026-04-25 12:30 4.44628 97.13068 31990 ft 485 kts 303°
2026-04-25 12:31 4.48223 97.07367 31988 ft 485 kts 303°
2026-04-25 12:31 4.51833 97.01652 31982 ft 485 kts 303°
2026-04-25 12:32 4.55440 96.95937 31983 ft 484 kts 303°
2026-04-25 12:32 4.59028 96.90267 31977 ft 484 kts 303°
2026-04-25 12:33 4.62636 96.84551 31980 ft 485 kts 303°
2026-04-25 12:33 4.66240 96.78849 31973 ft 484 kts 303°
2026-04-25 12:34 4.69840 96.73145 31978 ft 484 kts 303°
2026-04-25 12:34 4.73444 96.67438 31975 ft 483 kts 303°
2026-04-25 12:35 4.77023 96.61766 31966 ft 483 kts 303°
2026-04-25 12:35 4.80618 96.56069 31964 ft 483 kts 303°
2026-04-25 12:36 4.84205 96.50385 31954 ft 482 kts 303°
2026-04-25 12:36 4.87791 96.44700 31958 ft 482 kts 303°
2026-04-25 12:37 4.91387 96.39025 31948 ft 482 kts 303°
2026-04-25 12:37 4.94963 96.33335 31944 ft 482 kts 303°
2026-04-25 12:38 4.98549 96.27665 31942 ft 481 kts 303°
2026-04-25 12:38 5.00323 96.24855 31780 ft 483 kts 303°
2026-04-25 12:38 5.02106 96.22013 31369 ft 480 kts 303°
2026-04-25 12:38 5.03874 96.19199 30894 ft 474 kts 303°
2026-04-25 12:39 5.05631 96.16414 30412 ft 470 kts 303°
2026-04-25 12:39 5.07369 96.13659 29922 ft 466 kts 303°
2026-04-25 12:39 5.09093 96.10917 29360 ft 462 kts 303°
2026-04-25 12:39 5.10794 96.08210 28819 ft 458 kts 303°
2026-04-25 12:40 5.12489 96.05519 28280 ft 454 kts 303°
2026-04-25 12:40 5.14169 96.02851 27750 ft 450 kts 303°
2026-04-25 12:40 5.15839 96.00197 27215 ft 447 kts 303°
2026-04-25 12:40 5.17486 95.97578 26654 ft 444 kts 303°
2026-04-25 12:41 5.19131 95.94963 26114 ft 440 kts 303°
2026-04-25 12:41 5.20761 95.92374 25579 ft 437 kts 303°
2026-04-25 12:41 5.22371 95.89813 25054 ft 434 kts 303°
2026-04-25 12:41 5.23954 95.87296 24546 ft 430 kts 303°
2026-04-25 12:42 5.25546 95.84763 24039 ft 427 kts 303°
2026-04-25 12:42 5.26618 95.83059 23635 ft 427 kts 303°
2026-04-25 12:42 5.28707 95.79738 22612 ft 424 kts 303°
2026-04-25 12:42 5.30274 95.77244 21815 ft 420 kts 303°
2026-04-25 12:43 5.31829 95.74770 21033 ft 416 kts 303°
2026-04-25 12:43 5.33365 95.72327 20277 ft 412 kts 303°
2026-04-25 12:43 5.36627 95.67698 18820 ft 401 kts 317°
2026-04-25 12:44 5.38731 95.65900 18113 ft 389 kts 326°
2026-04-25 12:44 5.41070 95.64708 17309 ft 368 kts 346°
2026-04-25 12:44 5.45772 95.65482 15814 ft 349 kts 38°
2026-04-25 12:45 5.47411 95.67253 15131 ft 346 kts 56°
2026-04-25 12:45 5.48970 95.69055 14403 ft 348 kts 41°
2026-04-25 12:45 5.53389 95.70986 12883 ft 354 kts 11°
2026-04-25 12:46 5.55846 95.71194 12097 ft 354 kts
2026-04-25 12:46 5.58310 95.71051 11336 ft 355 kts 354°
2026-04-25 12:46 5.60738 95.70606 10631 ft 355 kts 347°
2026-04-25 12:46 5.63039 95.69924 10164 ft 333 kts 342°
2026-04-25 12:47 5.65125 95.69089 9678 ft 313 kts 337°
2026-04-25 12:47 5.67061 95.68117 9212 ft 307 kts 332°
2026-04-25 12:47 5.68887 95.67011 8852 ft 305 kts 328°
2026-04-25 12:47 5.70605 95.65782 8494 ft 303 kts 323°
2026-04-25 12:48 5.72218 95.64437 8156 ft 301 kts 319°
2026-04-25 12:48 5.73728 95.62980 7730 ft 302 kts 315°
2026-04-25 12:48 5.75119 95.61431 7314 ft 303 kts 311°
2026-04-25 12:48 5.76421 95.59754 6891 ft 304 kts 307°
2026-04-25 12:49 5.77601 95.57987 6479 ft 305 kts 303°
2026-04-25 12:49 5.78646 95.56150 6194 ft 301 kts 298°
2026-04-25 12:49 5.79548 95.54269 5903 ft 298 kts 295°
2026-04-25 12:49 5.80311 95.52344 5599 ft 293 kts 290°
2026-04-25 12:50 5.80735 95.51069 5405 ft 289 kts 288°
2026-04-25 12:50 5.81401 95.48503 5096 ft 279 kts 283°
2026-04-25 12:50 5.81738 95.46620 4992 ft 267 kts 279°
2026-04-25 12:50 5.81951 95.44792 4985 ft 265 kts 275°
2026-04-25 12:51 5.82053 95.42933 4993 ft 270 kts 272°
2026-04-25 12:51 5.82046 95.41023 4996 ft 274 kts 269°
2026-04-25 12:51 5.82007 95.39098 5004 ft 277 kts 267°
2026-04-25 12:51 5.81723 95.37173 5002 ft 280 kts 256°
2026-04-25 12:52 5.80843 95.35450 4975 ft 275 kts 225°
2026-04-25 12:52 5.79272 95.34537 4974 ft 254 kts 189°
2026-04-25 12:52 5.77579 95.34631 4816 ft 241 kts 159°
2026-04-25 12:52 5.76195 95.35474 4602 ft 229 kts 137°
2026-04-25 12:53 5.75151 95.36698 4089 ft 233 kts 123°
2026-04-25 12:53 5.74069 95.37862 3835 ft 227 kts 153°
2026-04-25 12:53 5.72548 95.38111 3595 ft 223 kts 181°
2026-04-25 12:53 5.71012 95.38094 3303 ft 220 kts 173°
2026-04-25 12:54 5.69556 95.38398 3044 ft 207 kts 163°
2026-04-25 12:54 5.68228 95.38754 2776 ft 195 kts 166°
2026-04-25 12:54 5.66917 95.39016 2527 ft 185 kts 168°
2026-04-25 12:54 5.65702 95.39254 2294 ft 175 kts 166°
2026-04-25 12:55 5.64561 95.39505 2063 ft 160 kts 167°
2026-04-25 12:55 5.63850 95.39642 1933 ft 147 kts 168°
2026-04-25 12:55 5.62620 95.39905 1705 ft 132 kts 167°
2026-04-25 12:55 5.61695 95.40090 1559 ft 140 kts 167°
2026-04-25 12:56 5.60740 95.40296 1377 ft 144 kts 167°
2026-04-25 12:56 5.59751 95.40489 1200 ft 146 kts 167°
2026-04-25 12:56 5.58776 95.40704 1032 ft 141 kts 166°
2026-04-25 12:56 5.57825 95.40895 863 ft 138 kts 169°
2026-04-25 12:57 5.56899 95.41081 679 ft 135 kts 168°
2026-04-25 12:57 5.55980 95.41279 522 ft 136 kts 168°
2026-04-25 12:57 5.55057 95.41465 360 ft 132 kts 168°
2026-04-25 12:57 5.54150 95.41660 180 ft 135 kts 168°
2026-04-25 12:58 5.53274 95.41840 77 ft 116 kts 168°
2026-04-25 12:58 5.52700 95.41957 71 ft 51 kts 168°
2026-04-25 12:58 5.52443 95.42008 82 ft 32 kts 169°
2026-04-25 12:58 5.52228 95.42052 83 ft 32 kts 168°
2026-04-25 12:59 5.52038 95.42090 83 ft 13 kts 186°
2026-04-25 12:59 5.51996 95.42014 78 ft 15 kts 260°
2026-04-25 12:59 5.51959 95.41944 74 ft 9 kts 186°
2026-04-25 12:59 5.51901 95.41952 78 ft 7 kts 168°
2026-04-25 13:00 5.51875 95.41957 73 ft 5 kts 168°
2026-04-25 13:00 5.51850 95.41962 71 ft 6 kts 176°
2026-04-25 13:00 5.51813 95.41923 84 ft 5 kts 256°
2026-04-25 13:00 5.51802 95.41876 82 ft 8 kts 257°
2026-04-25 13:01 5.51795 95.41847 79 ft 1 kts 257°
2026-04-25 13:01 5.51794 95.41840 79 ft 0 kts 257°